Location: Caltech
(34.1382°N, 118.1253°W)
Time: 17:37:13
(UTC-07:00)

Oscar 11 - Visible Passes

Search period start: 27 April 2017 00:00
Search period end: 07 May 2017 00:00
Orbit: 614 x 626 km, 97.7° (Epoch: 26 April)

Date Brightness Start Highest point End Pass type
(mag) Time Alt. Az. Time Alt. Az. Time Alt. Az.
27 Apr 7.0 21:07:38 28° SSE 21:09:51 88° WSW 21:14:11 10° NNW visible
28 Apr 7.7 21:25:03 27° SSW 21:27:11 53° W 21:31:24 10° NNW visible
29 Apr 8.7 20:05:51 10° ESE 20:08:42 18° ENE 20:11:33 10° NNE visible
29 Apr 8.6 21:42:30 21° SW 21:44:32 32° W 21:48:25 10° NNW visible
30 Apr 8.1 20:22:46 13° SE 20:25:52 27° ENE 20:29:30 10° NNE visible
30 Apr 9.3 21:59:56 15° SW 22:01:57 20° W 22:05:10 10° NW visible
01 May 7.5 20:40:12 18° SE 20:43:05 43° ENE 20:47:10 10° N visible
01 May 9.8 22:17:31 10° WSW 22:19:23 13° W 22:21:17 10° WNW visible
02 May 7.0 20:57:38 22° SSE 21:00:21 71° ENE 21:04:39 10° N visible
03 May 7.2 21:15:04 23° S 21:17:39 70° WSW 21:21:58 10° NNW visible
04 May 8.1 21:32:30 21° SSW 21:34:59 42° W 21:39:06 10° NNW visible
05 May 8.5 20:13:09 10° ESE 20:16:25 22° ENE 20:19:43 10° NNE visible
05 May 8.9 21:49:57 16° SW 21:52:22 26° W 21:55:59 10° NW visible
06 May 7.8 20:30:13 13° SE 20:33:37 34° ENE 20:37:30 10° N visible
06 May 9.6 22:07:23 11° SW 22:09:48 16° W 22:12:32 10° NW visible
